Location: Newark
(7.0858°N, 171.3717°E)
Time: 14:25:30
(UTC+00:00)

Courier 1B Rocket - Pass Details

Date: 30 November 2020
Orbit: 920 x 1202 km, 28.2° (Epoch: 20 January)

Event Time Altitude Azimuth Distance (km) Brightness Sun altitude
Rises 17:01:07 0° 278° (W) 4,032 - -21.7°
Reaches altitude 10° 17:04:36 10° 292° (WNW) 3,097 - -20.9°
Exits shadow 17:09:09 22° 328° (NNW) 2,329 6.5 -19.8°
Maximum altitude 17:10:30 23° 342° (NNW) 2,280 6.6 -19.5°
Drops below altitude 10° 17:16:28 10° 32° (NNE) 3,120 7.8 -18.1°
Sets 17:20:01 0° 47° (NE) 4,069 8.6 -17.3°
